When you browse on this site, cookies collect data to enhance your experience and personalize the content and advertising you see.
Visit our Privacy Policy to learn more. By continuing to use the site, you agree to this use of cookies and data.
  • în România
  • Lista ţărilor
  • Pe 7 zile
  • Temperatura apei
  • Hartă satelitară
  • Meteo pe hartă
  • Widget-uri
  • user-avatar
    Intrare

    Meteo pe oră la Bregenz

    Astăzi, 27 Iunie, Joi

    Timp Temperatura Precipitaţii Vânt Presiune Umiditate
    00:00 +19°C° 0 mm 1 m/s 655 mmHg 73%
    01:00 +19°C° 0 mm 1 m/s 655 mmHg 72%
    02:00 +18°C° 0 mm 1 m/s 654 mmHg 71%
    03:00 +18°C° 0 mm 1 m/s 654 mmHg 70%
    04:00 +18°C° 0 mm 1 m/s 654 mmHg 69%
    05:00 +19°C° 0 mm 1 m/s 654 mmHg 68%
    06:00 +20°C° 0 mm 1 m/s 655 mmHg 67%
    07:00 +22°C° 0 mm 1 m/s 655 mmHg 65%
    08:00 +24°C° 0 mm 1 m/s 656 mmHg 60%
    09:00 +26°C° 0 mm 1 m/s 656 mmHg 55%
    10:00 +28°C° 0 mm 1 m/s 657 mmHg 50%
    11:00 +28°C° 0 mm 1 m/s 657 mmHg 49%
    12:00 +28°C° 0 mm 2 m/s 657 mmHg 48%
    13:00 +29°C° 0 mm 2 m/s 657 mmHg 47%
    14:00 +29°C° 0 mm 2 m/s 656 mmHg 49%
    15:00 +29°C° 0 mm 2 m/s 656 mmHg 51%
    16:00 +28°C° 0 mm 2 m/s 656 mmHg 52%
    17:00 +26°C° 0.9 mm 2 m/s 655 mmHg 64%
    18:00 +25°C° 0.9 mm 2 m/s 654 mmHg 76%
    19:00 +23°C° 0.9 mm 2 m/s 654 mmHg 88%
    20:00 +21°C° 0.7 mm 1 m/s 654 mmHg 90%
    21:00 +19°C° 0.7 mm 1 m/s 654 mmHg 91%
    22:00 +18°C° 0.7 mm 1 m/s 653 mmHg 93%
    23:00 +16°C° 0.1 mm 1 m/s 653 mmHg 93%

    Mâine, 28 Iunie, Vineri

    Timp Temperatura Precipitaţii Vânt Presiune Umiditate
    00:00 +14°C° 0.1 mm 0 m/s 653 mmHg 93%
    01:00 +13°C° 0.1 mm 0 m/s 653 mmHg 94%
    02:00 +13°C° 0 mm 0 m/s 652 mmHg 94%
    03:00 +13°C° 0 mm 0 m/s 652 mmHg 94%
    04:00 +12°C° 0 mm 0 m/s 652 mmHg 94%
    05:00 +13°C° 0 mm 0 m/s 652 mmHg 92%
    06:00 +14°C° 0 mm 0 m/s 652 mmHg 91%
    07:00 +15°C° 0 mm 0 m/s 652 mmHg 90%
    08:00 +18°C° 0 mm 1 m/s 652 mmHg 84%
    09:00 +20°C° 0 mm 1 m/s 653 mmHg 78%
    10:00 +20°C° 0 mm 2 m/s 653 mmHg 71%
    11:00 +21°C° 0 mm 2 m/s 653 mmHg 65%
    12:00 +23°C° 0 mm 2 m/s 653 mmHg 58%
    13:00 +24°C° 0 mm 2 m/s 653 mmHg 52%
    14:00 +24°C° 0 mm 3 m/s 653 mmHg 52%
    15:00 +24°C° 0 mm 3 m/s 653 mmHg 52%
    16:00 +24°C° 0 mm 3 m/s 653 mmHg 52%
    17:00 +21°C° 0 mm 2 m/s 652 mmHg 60%
    18:00 +20°C° 0 mm 2 m/s 652 mmHg 68%
    19:00 +19°C° 0 mm 2 m/s 651 mmHg 76%
    20:00 +18°C° 0 mm 1 m/s 651 mmHg 81%
    21:00 +15°C° 0 mm 1 m/s 651 mmHg 86%
    22:00 +13°C° 0 mm 1 m/s 650 mmHg 92%
    23:00 +13°C° 0 mm 1 m/s 650 mmHg 91%

    Poimâine, 29 Iunie, Sâmbătă

    Timp Temperatura Precipitaţii Vânt Presiune Umiditate
    00:00 +13°C° 0 mm 1 m/s 650 mmHg 91%
    01:00 +12°C° 0 mm 1 m/s 650 mmHg 91%
    02:00 +12°C° 0 mm 1 m/s 650 mmHg 90%
    03:00 +12°C° 0 mm 1 m/s 649 mmHg 90%
    04:00 +11°C° 0 mm 1 m/s 649 mmHg 89%
    05:00 +13°C° 0 mm 1 m/s 650 mmHg 84%
    06:00 +14°C° 0 mm 1 m/s 650 mmHg 80%
    07:00 +16°C° 0 mm 1 m/s 650 mmHg 75%
    08:00 +19°C° 0 mm 1 m/s 651 mmHg 69%
    09:00 +21°C° 0 mm 1 m/s 651 mmHg 62%
    10:00 +23°C° 0 mm 1 m/s 652 mmHg 55%
    11:00 +24°C° 0 mm 1 m/s 652 mmHg 53%
    12:00 +25°C° 0 mm 2 m/s 652 mmHg 51%
    13:00 +26°C° 0 mm 2 m/s 652 mmHg 49%
    14:00 +26°C° 0 mm 2 m/s 652 mmHg 50%
    15:00 +26°C° 0 mm 2 m/s 652 mmHg 52%
    16:00 +26°C° 0 mm 2 m/s 652 mmHg 53%
    17:00 +25°C° 0 mm 2 m/s 652 mmHg 61%
    18:00 +23°C° 0 mm 1 m/s 651 mmHg 69%
    19:00 +22°C° 0 mm 1 m/s 651 mmHg 78%
    20:00 +21°C° 0 mm 1 m/s 651 mmHg 81%
    21:00 +19°C° 0 mm 1 m/s 651 mmHg 85%
    22:00 +16°C° 0 mm 1 m/s 650 mmHg 89%
    23:00 +16°C° 0 mm 1 m/s 650 mmHg 89%

    30 Iunie, Duminică

    Timp Temperatura Precipitaţii Vânt Presiune Umiditate
    00:00 +16°C° 0 mm 1 m/s 650 mmHg 88%
    01:00 +15°C° 0 mm 1 m/s 650 mmHg 87%
    02:00 +15°C° 0 mm 1 m/s 650 mmHg 87%
    03:00 +15°C° 0 mm 1 m/s 650 mmHg 86%
    04:00 +15°C° 0 mm 1 m/s 650 mmHg 86%
    05:00 +16°C° 0 mm 1 m/s 650 mmHg 82%
    06:00 +19°C° 0 mm 1 m/s 651 mmHg 78%
    07:00 +20°C° 0 mm 1 m/s 651 mmHg 74%
    08:00 +22°C° 0 mm 1 m/s 652 mmHg 65%
    09:00 +24°C° 0 mm 1 m/s 653 mmHg 56%
    10:00 +26°C° 0 mm 1 m/s 653 mmHg 48%
    11:00 +27°C° 0 mm 1 m/s 654 mmHg 44%
    12:00 +28°C° 0 mm 2 m/s 654 mmHg 41%
    13:00 +28°C° 0 mm 2 m/s 654 mmHg 38%
    14:00 +29°C° 0 mm 2 m/s 654 mmHg 38%
    15:00 +29°C° 0 mm 2 m/s 654 mmHg 39%
    16:00 +29°C° 0 mm 2 m/s 654 mmHg 39%
    17:00 +27°C° 0 mm 1 m/s 654 mmHg 47%
    18:00 +25°C° 0 mm 1 m/s 653 mmHg 54%
    19:00 +22°C° 0 mm 0 m/s 653 mmHg 62%
    20:00 +22°C° 0 mm 1 m/s 653 mmHg 62%
    21:00 +20°C° 0 mm 1 m/s 652 mmHg 62%
    22:00 +19°C° 0 mm 1 m/s 652 mmHg 63%
    23:00 +18°C° 0 mm 1 m/s 652 mmHg 62%

    1 Iulie, Luni

    Timp Temperatura Precipitaţii Vânt Presiune Umiditate
    00:00 +17°C° 0 mm 2 m/s 652 mmHg 61%
    01:00 +16°C° 0 mm 2 m/s 651 mmHg 60%
    02:00 +16°C° 0 mm 2 m/s 651 mmHg 59%
    03:00 +16°C° 0 mm 2 m/s 651 mmHg 59%
    04:00 +15°C° 0 mm 2 m/s 651 mmHg 58%
    05:00 +18°C° 0 mm 1 m/s 651 mmHg 58%
    06:00 +19°C° 0 mm 1 m/s 652 mmHg 58%
    07:00 +20°C° 0 mm 1 m/s 652 mmHg 57%
    08:00 +22°C° 0 mm 1 m/s 653 mmHg 53%
    09:00 +25°C° 0 mm 1 m/s 653 mmHg 49%
    10:00 +27°C° 0 mm 1 m/s 654 mmHg 44%
    11:00 +27°C° 0 mm 1 m/s 654 mmHg 44%
    12:00 +28°C° 0 mm 1 m/s 654 mmHg 44%
    13:00 +28°C° 0 mm 1 m/s 654 mmHg 43%
    14:00 +28°C° 0 mm 2 m/s 654 mmHg 45%
    15:00 +28°C° 0 mm 2 m/s 653 mmHg 47%
    16:00 +28°C° 0 mm 2 m/s 653 mmHg 49%
    17:00 +25°C° 2.2 mm 2 m/s 653 mmHg 62%
    18:00 +23°C° 2.2 mm 2 m/s 652 mmHg 75%
    19:00 +19°C° 2.2 mm 2 m/s 652 mmHg 88%
    20:00 +17°C° 1.6 mm 2 m/s 651 mmHg 89%
    21:00 +16°C° 1.6 mm 2 m/s 651 mmHg 89%
    22:00 +14°C° 1.6 mm 2 m/s 651 mmHg 90%
    23:00 +14°C° 0.1 mm 2 m/s 651 mmHg 88%

    2 Iulie, Marţi

    Timp Temperatura Precipitaţii Vânt Presiune Umiditate
    00:00 +13°C° 0.1 mm 1 m/s 651 mmHg 87%
    01:00 +13°C° 0.1 mm 1 m/s 650 mmHg 86%
    02:00 +13°C° 0 mm 1 m/s 650 mmHg 86%
    03:00 +13°C° 0 mm 1 m/s 650 mmHg 87%
    04:00 +12°C° 0 mm 0 m/s 650 mmHg 87%
    05:00 +13°C° 0 mm 0 m/s 650 mmHg 85%
    06:00 +14°C° 0 mm 0 m/s 651 mmHg 82%
    07:00 +15°C° 0 mm 0 m/s 651 mmHg 80%
    08:00 +19°C° 0 mm 1 m/s 651 mmHg 74%
    09:00 +20°C° 0 mm 1 m/s 652 mmHg 68%
    10:00 +21°C° 0 mm 2 m/s 652 mmHg 63%
    11:00 +23°C° 0.1 mm 2 m/s 652 mmHg 61%
    12:00 +23°C° 0.1 mm 2 m/s 652 mmHg 60%
    13:00 +24°C° 0.1 mm 2 m/s 653 mmHg 58%
    14:00 +24°C° 0.3 mm 2 m/s 652 mmHg 61%
    15:00 +22°C° 0.3 mm 3 m/s 652 mmHg 65%
    16:00 +22°C° 0.3 mm 3 m/s 652 mmHg 68%
    17:00 +21°C° 0.8 mm 2 m/s 651 mmHg 75%
    18:00 +19°C° 0.8 mm 2 m/s 651 mmHg 81%
    19:00 +18°C° 0.8 mm 2 m/s 651 mmHg 88%
    20:00 +17°C° 0.1 mm 2 m/s 651 mmHg 90%
    21:00 +16°C° 0.1 mm 1 m/s 651 mmHg 92%
    22:00 +15°C° 0.1 mm 1 m/s 650 mmHg 94%
    23:00 +14°C° 0 mm 1 m/s 650 mmHg 92%
    Arată mai mult